Wetbulb
49.45 47.74 44.50 44.89 54.45 56.83 59.52 60.79 59.60 58.14 60.05 58.26 57.97 64.13 64.04 66.14 71.03 69.79 68.06 68.85 69.37 73.42 73.07 72.94 72.57 72.15 71.78 71.51 71.41 70.83 69.83 69.30
47.55 46.82 51.54 52.88 55.84 59.43 59.29 61.30 60.67 59.40 56.86 59.63 64.16 63.09 65.37 70.50 71.06 69.58 68.87 68.34 71.39 73.44 73.15 73.07 72.72 72.38 71.98 72.08 71.64 71.13 70.57 70.01
45.94 48.39 53.06 55.52 57.32 59.43 58.67 60.22 59.77 60.20 57.00 57.47 61.95 65.22 65.49 68.43 70.99 69.50 68.88 68.39 71.39 73.42 73.49 73.59 73.34 72.95 72.55 72.38 72.01 71.81 71.70 70.97
43.59 48.75 53.53 55.42 56.35 59.75 59.06 59.67 59.53 59.12 58.38 57.25 61.79 62.55 64.47 65.81 66.18 70.04 69.39 68.64 70.81 72.97 73.61 73.44 73.37 73.00 72.70 72.25 72.08 72.11 71.96 71.88
46.27 48.37 51.39 54.82 57.17 54.67 54.39 55.48 57.41 59.23 56.35 57.84 60.58 62.67 63.66 64.68 64.84 64.99 69.76 69.16 70.30 70.86 72.16 73.89 73.44 72.99 72.59 72.27 72.13 71.78 71.64 71.83
46.43 47.43 49.20 55.73 56.63 55.17 55.90 56.90 61.70 61.31 56.43 55.55 60.35 63.65 63.33 62.45 63.89 64.01 68.21 70.40 69.83 70.04 70.40 70.85 71.38 73.56 72.76 72.39 72.20 72.00 71.88 71.95
46.00 48.30 50.87 55.94 54.46 58.18 60.02 58.38 58.92 60.20 60.24 61.64 62.30 62.83 59.93 58.85 59.22 60.80 65.08 70.24 70.22 69.77 69.92 69.82 70.13 71.83 72.74 73.14 72.59 72.44 71.99 72.20
51.24 52.16 52.19 55.06 55.72 57.13 57.53 57.27 57.47 58.83 61.35 62.06 61.28 59.72 58.36 57.74 57.21 57.17 58.24 68.94 70.16 69.82 69.65 69.77 70.51 70.01 70.46 70.45 70.19 70.42 69.94 69.56
52.62 53.97 55.20 55.05 56.28 58.66 56.42 54.70 57.09 56.97 59.40 61.33 60.58 59.51 58.56 58.09 57.80 57.64 59.37 63.69 70.04 69.95 69.97 69.81 69.64 69.35 69.98 69.93 69.71 69.99 69.05 67.75
54.82 55.58 54.86 54.45 57.03 56.30 56.68 55.40 58.26 59.06 60.68 60.62 59.79 58.20 58.41 57.93 58.05 58.17 58.53 59.26 67.23 70.37 70.44 69.86 69.75 68.64 69.72 69.23 69.23 68.93 68.96 67.07
55.70 56.27 56.15 56.74 55.49 55.82 56.26 58.53 58.93 59.12 59.76 58.18 58.29 58.53 59.29 59.24 59.07 59.06 57.66 59.41 62.38 66.68 70.36 70.03 68.45 68.34 69.33 69.15 68.96 68.42 68.04 67.83
54.00 53.44 54.27 53.66 54.13 54.90 55.95 57.83 57.61 57.80 57.24 57.76 57.92 58.41 58.25 58.48 58.51 58.71 59.24 60.65 61.31 65.99 68.45 69.31 68.55 68.06 69.54 69.75 69.28 68.33 68.11 67.99
51.42 53.38 52.59 54.17 51.12 52.23 56.12 57.13 56.68 56.28 56.73 57.22 57.27 58.26 58.20 58.88 58.68 59.73 61.72 61.25 61.25 62.34 66.71 68.38 68.13 68.28 69.52 69.84 69.34 68.47 68.15 68.83
48.68 50.96 52.59 52.83 46.96 52.86 55.86 55.64 55.31 56.76 57.35 56.99 57.19 58.06 58.56 58.91 58.58 60.94 61.02 60.70 61.73 70.51 68.36 68.51 67.46 68.24 69.39 69.23 67.99 67.42 66.38 68.13
45.50 51.15 50.93 50.70 47.90 53.39 55.60 55.32 55.05 55.98 56.55 56.85 57.16 57.26 58.31 60.09 59.05 59.03 60.60 60.33 62.57 66.47 68.26 68.58 68.87 68.16 68.59 68.32 66.24 65.49 64.65 65.23
43.29 48.22 49.92 48.70 48.68 52.10 54.16 54.22 54.50 55.27 56.03 56.64 57.17 56.30 57.37 58.97 60.15 60.40 62.58 64.38 64.47 67.70 68.83 69.10 69.31 68.79 68.14 66.08 64.84 64.77 64.53 64.55
46.01 49.33 48.03 47.49 48.17 50.76 53.30 52.44 52.31 52.76 53.39 54.19 55.28 57.00 57.50 59.72 59.32 62.42 62.17 63.80 65.84 68.14 68.46 69.91 68.90 67.72 65.87 64.15 63.67 64.48 65.51 64.76
45.06 49.14 47.86 47.48 47.34 51.00 52.66 52.39 53.07 53.51 53.90 53.48 54.83 56.13 57.46 57.99 59.35 61.89 62.53 65.22 65.95 67.70 68.11 67.73 68.07 66.28 65.10 63.44 62.98 62.85 63.53 64.07
40.37 44.84 46.52 45.24 43.40 46.19 49.68 51.73 53.21 53.49 53.66 54.22 54.58 54.47 55.86 56.38 61.21 62.28 63.24 63.81 64.71 66.08 67.53 67.34 67.38 65.83 64.30 63.40 62.57 62.05 62.09 63.05
42.84 41.23 36.71 44.20 35.84 43.45 46.93 48.52 50.79 52.55 52.15 53.17 52.93 54.58 55.04 54.96 60.99 62.18 63.21 64.23 65.60 67.08 67.01 66.14 65.32 64.31 62.77 60.44 60.21 60.77 61.06 62.33
MSLP
1010.72 1009.87 1008.55 1006.97 1005.03 1004.41 1003.70 1002.22 1001.97 1001.85 1001.24 1001.64 1002.79 1003.08 1003.57 1003.96 1005.19 1005.90 1006.88 1007.71 1008.22 1008.79 1009.23 1009.69 1009.93 1010.37 1010.79 1011.25 1011.65 1012.15 1012.55 1012.73
1010.17 1008.74 1007.06 1005.98 1004.38 1003.36 1004.95 1003.03 1002.40 1002.02 1001.94 1002.27 1002.39 1002.83 1003.13 1004.15 1005.06 1005.83 1006.80 1007.60 1008.28 1008.86 1009.27 1009.60 1009.85 1010.20 1010.64 1011.07 1011.32 1011.83 1012.16 1012.30
1009.42 1007.91 1006.07 1004.35 1003.24 1002.61 1003.20 1003.13 1002.76 1002.70 1002.61 1002.93 1002.82 1002.76 1003.17 1004.08 1004.72 1005.45 1006.41 1006.80 1007.38 1008.39 1009.08 1009.59 1009.97 1010.21 1010.47 1010.74 1010.78 1011.18 1011.54 1011.87
1009.02 1007.37 1005.28 1003.43 1002.45 1001.99 1002.02 1001.88 1001.63 1001.97 1002.87 1002.95 1002.81 1002.83 1003.14 1003.31 1004.36 1004.59 1005.33 1005.87 1006.34 1007.06 1007.84 1008.70 1009.38 1009.84 1010.18 1010.49 1010.62 1010.68 1010.90 1011.29
1008.56 1006.99 1004.99 1003.31 1002.33 1001.77 1000.91 1001.06 1001.37 1001.52 1002.34 1003.19 1003.08 1002.70 1002.82 1002.87 1003.11 1003.95 1004.58 1005.25 1005.94 1006.50 1006.73 1007.31 1008.03 1008.73 1009.26 1009.73 1010.27 1010.68 1010.76 1010.91
1008.24 1007.06 1005.05 1002.73 1002.28 1001.58 1001.09 1001.05 1000.92 1000.81 1001.82 1002.83 1002.68 1002.28 1002.43 1002.51 1002.86 1003.00 1004.29 1004.74 1005.31 1005.90 1006.58 1007.06 1007.45 1007.56 1008.30 1009.01 1009.50 1010.18 1010.74 1011.02
1007.84 1006.45 1004.51 1002.81 1002.25 1001.40 1000.81 1001.45 1001.25 1001.37 1001.63 1001.79 1002.09 1002.16 1002.62 1002.80 1002.87 1003.16 1003.79 1004.37 1004.96 1005.28 1005.78 1006.23 1006.92 1007.36 1007.59 1008.23 1008.99 1009.58 1010.19 1010.70
1006.79 1005.82 1004.58 1003.35 1002.82 1002.05 1001.44 1001.40 1001.45 1001.26 1001.55 1001.55 1001.67 1001.88 1002.06 1002.26 1002.54 1002.94 1003.11 1003.95 1004.22 1004.85 1005.31 1006.14 1006.31 1006.91 1007.46 1007.72 1008.27 1008.91 1009.62 1010.22
1006.45 1005.44 1004.57 1003.58 1002.66 1002.06 1001.76 1001.66 1001.64 1001.68 1001.73 1001.75 1001.64 1001.61 1001.75 1001.89 1002.08 1002.47 1002.39 1002.88 1003.83 1004.14 1004.70 1005.07 1005.62 1006.17 1006.85 1007.39 1007.73 1008.22 1008.84 1009.54
1005.65 1005.02 1004.37 1003.35 1002.74 1002.10 1001.65 1001.49 1001.40 1001.30 1001.53 1001.61 1001.90 1001.83 1001.56 1001.48 1001.55 1001.77 1001.85 1002.15 1002.57 1003.35 1003.86 1004.36 1004.79 1005.32 1005.92 1006.66 1007.09 1007.55 1008.08 1008.71
1004.74 1004.25 1003.74 1003.16 1002.33 1001.76 1001.23 1001.08 1000.89 1000.81 1000.92 1000.92 1001.03 1001.25 1001.00 1000.86 1000.96 1000.92 1001.61 1001.62 1001.81 1002.57 1003.01 1003.67 1004.38 1004.86 1005.27 1005.75 1006.18 1006.48 1007.20 1007.72
1004.30 1003.60 1003.27 1002.93 1002.14 1001.67 1001.03 1000.86 1000.51 1000.32 1000.49 1000.53 1000.55 1000.56 1000.41 1000.52 1000.44 1000.67 1000.71 1001.09 1000.91 1001.73 1002.11 1002.68 1003.33 1003.85 1004.46 1004.86 1005.44 1005.89 1006.44 1006.84
1003.36 1003.08 1002.68 1003.01 1001.20 1000.36 1000.62 1000.54 1000.04 1000.10 999.90 999.83 999.86 999.88 1000.02 999.78 999.83 999.98 1000.04 1000.16 1000.39 1000.71 1001.23 1001.82 1002.38 1003.17 1003.82 1004.31 1004.91 1005.37 1005.77 1006.14
1002.85 1002.80 1002.11 1002.87 998.09 1000.31 1000.36 1000.14 999.85 999.70 999.72 999.54 999.20 999.33 999.10 999.00 998.97 999.18 999.31 999.60 999.62 999.92 1000.72 1001.29 1001.92 1002.66 1003.33 1003.96 1004.33 1004.80 1005.29 1005.78
1002.36 1002.00 1002.12 1001.79 999.23 999.85 999.69 999.63 999.36 999.08 998.86 998.89 998.64 998.58 998.58 998.62 998.55 998.41 998.56 998.81 999.24 999.89 1000.49 1001.06 1001.65 1002.39 1003.01 1003.58 1004.06 1004.64 1005.25 1005.80
1001.06 1002.16 1001.59 1001.11 1000.29 999.12 998.86 999.29 998.81 998.41 998.16 998.05 998.07 998.03 997.80 997.77 997.96 997.86 998.10 998.54 999.00 999.77 1000.39 1000.93 1001.58 1002.40 1003.21 1003.68 1004.23 1004.73 1005.25 1005.90
1001.80 1002.14 1001.65 1000.64 1000.10 998.85 998.33 998.32 998.17 997.84 997.52 997.39 997.47 996.91 996.84 997.08 997.30 998.35 998.42 998.61 999.27 999.97 1000.69 1001.03 1001.78 1002.55 1003.41 1004.05 1004.43 1004.80 1005.28 1005.71
1001.78 1001.54 1000.96 1000.02 999.73 998.47 997.71 997.48 997.38 997.08 996.94 996.93 996.76 996.66 996.58 996.87 997.37 998.20 998.89 999.22 999.69 999.98 1000.80 1001.22 1001.70 1002.50 1003.19 1003.81 1004.28 1004.51 1005.12 1005.50
1001.92 1002.07 1000.52 1000.23 999.76 998.49 997.37 996.77 996.39 996.30 996.02 996.10 996.15 996.30 996.40 996.69 997.38 998.04 998.73 999.42 999.87 1000.17 1000.97 1001.33 1001.79 1002.59 1003.40 1003.94 1004.38 1004.96 1005.36 1005.55
1002.40 1002.47 1000.53 1001.23 999.69 998.21 997.23 996.32 996.23 995.85 995.92 995.40 995.26 995.43 995.63 996.23 997.45 998.17 998.95 999.29 999.83 1000.53 1001.08 1001.48 1001.93 1002.73 1003.43 1004.23 1004.83 1005.00 1005.23 1005.40
Wind_Speed
4 4 6 5 5 9 13 6 2 4 8 5 7 6 7 14 17 17 15 13 13 20 19 19 19 18 17 16 16 15 15 14
2 10 12 15 11 6 6 22 5 9 2 5 2 6 9 19 19 17 15 14 14 19 18 18 19 18 18 17 17 17 16 15
5 9 13 17 9 9 8 11 5 19 2 6 5 11 10 18 18 18 16 16 18 22 19 18 18 19 19 19 19 19 18 17
7 12 18 17 11 7 12 18 12 1 10 4 7 9 9 9 15 17 19 18 19 27 25 22 20 19 19 19 19 20 20 19
8 13 20 16 9 11 4 8 4 3 5 4 5 8 10 11 10 13 17 17 16 18 24 27 25 23 22 21 20 19 19 19
6 12 19 16 12 4 5 2 5 7 2 7 7 11 9 8 10 9 15 16 15 15 17 17 18 26 24 22 21 19 18 17
11 13 17 19 13 8 5 8 4 4 2 1 8 8 5 5 4 6 10 14 14 17 17 17 15 17 23 24 21 19 18 17
17 13 16 18 15 14 6 5 3 4 5 9 8 3 2 2 3 4 4 15 15 15 15 14 13 15 14 14 12 11 10 9
18 17 20 22 19 16 12 7 5 5 8 18 13 10 3 1 3 6 8 8 15 15 15 17 13 11 8 7 8 8 11 8
22 21 23 25 21 20 16 10 8 10 12 10 12 7 6 6 6 7 8 6 17 17 16 16 10 11 11 9 9 8 10 11
20 19 23 24 26 23 21 19 13 11 17 10 9 10 9 10 9 9 8 6 8 13 16 15 12 10 11 11 10 11 10 12
18 21 22 24 25 20 20 19 14 13 13 10 10 11 8 9 10 9 8 9 6 12 16 16 14 13 11 10 10 10 9 10
24 22 25 22 30 31 19 14 16 15 17 17 11 11 11 11 11 10 7 8 9 9 11 15 15 10 10 10 9 10 9 11
21 21 22 17 41 13 14 14 14 18 18 11 11 10 13 12 9 10 7 9 9 8 11 11 11 7 7 8 6 7 6 8
26 22 18 15 29 19 17 19 22 22 22 19 16 11 8 9 9 10 10 7 7 9 10 10 8 7 6 7 5 5 5 6
29 11 14 21 27 30 29 21 23 22 20 19 18 13 9 9 10 9 6 6 7 7 9 9 7 6 5 5 5 5 5 5
17 18 16 21 23 25 18 10 13 12 11 11 10 12 9 8 7 7 6 8 8 10 8 9 7 6 4 4 4 3 4 7
15 14 16 22 20 25 22 18 19 23 18 11 8 8 7 4 5 7 7 8 8 9 9 6 6 4 4 5 3 4 3 6
21 13 23 16 15 18 17 16 13 10 11 8 11 10 8 8 9 9 10 9 8 9 9 8 8 5 4 4 4 3 1 2
21 13 19 6 18 21 16 20 16 18 10 13 11 8 8 7 9 10 8 8 9 9 9 8 8 6 5 5 4 3 4 3
Wind_Direction
183 208 205 241 298 60 347 69 83 340 330 88 121 114 137 140 141 133 144 157 168 172 172 172 167 168 167 164 160 165 168 169
242 257 267 250 264 81 351 308 199 256 53 54 55 120 149 136 135 134 146 155 166 176 177 177 174 171 171 171 167 173 177 177
227 254 266 266 227 127 203 216 292 235 151 97 65 111 115 138 146 145 156 164 163 176 181 182 183 178 178 180 176 181 183 184
242 259 262 276 287 178 178 186 224 260 275 135 149 111 145 141 163 161 164 168 169 175 178 181 186 187 185 187 189 188 185 188
265 275 285 282 337 314 13 358 122 99 69 148 128 158 160 167 186 165 167 163 170 180 180 180 183 187 188 189 195 199 194 193
271 275 284 290 308 306 306 327 133 110 193 187 214 185 175 182 185 191 164 170 171 173 181 185 188 185 187 192 193 197 203 204
252 247 260 295 310 319 72 291 350 69 29 358 170 187 155 198 195 192 166 170 173 178 182 185 188 191 186 190 194 196 203 207
247 260 269 282 292 311 341 300 241 319 327 330 301 98 173 248 286 285 255 183 179 178 180 176 185 188 191 188 189 189 195 199
262 270 273 279 288 305 294 261 303 240 342 284 296 284 199 221 216 250 257 155 183 182 178 179 188 180 182 187 182 183 186 178
247 254 268 273 284 284 288 274 276 285 222 243 245 259 221 222 246 260 252 244 183 184 178 189 181 179 176 180 184 183 192 181
246 249 255 269 273 274 277 286 278 284 286 272 261 256 230 211 224 238 249 231 164 164 182 185 187 180 177 184 184 181 181 190
250 245 252 259 266 265 262 270 267 270 270 269 262 257 256 230 228 237 215 216 201 173 182 181 187 178 182 179 178 177 182 188
254 252 252 262 265 254 266 275 280 269 266 268 257 256 246 224 218 203 197 204 220 202 174 180 178 164 175 179 172 182 187 180
251 255 252 250 260 261 280 276 274 284 274 263 256 254 262 244 213 197 190 205 225 160 169 168 172 158 155 171 156 167 148 154
254 235 246 234 270 267 268 261 256 257 263 265 256 253 254 251 208 212 208 222 189 158 162 159 148 145 138 144 129 138 130 138
248 239 238 241 252 263 261 256 258 258 256 253 250 236 238 226 226 209 197 170 147 143 145 139 127 117 106 108 123 121 137 151
248 239 262 258 259 265 271 240 260 265 259 249 232 224 227 247 213 123 121 117 138 135 148 139 147 139 123 140 141 120 144 156
274 244 254 251 257 248 251 259 249 254 253 247 239 229 231 208 175 142 134 123 122 125 141 127 132 118 127 135 149 143 157 180
256 284 281 294 289 278 286 276 268 246 238 232 212 216 217 231 161 142 142 139 134 129 133 122 130 116 101 84 56 73 134 163
253 256 258 236 273 266 267 266 267 264 272 257 240 223 220 211 142 146 149 134 121 124 124 125 132 114 127 141 138 185 159 148